,,PressureMeas_1m,,PRMeasQMR101_1,,RHStat155_1m_1,,SRMeasQMS101R_1m,,TAStat155_1m_1,,GenWind_1,,GenWind_1,
2017-07-05, 07:00:06,VALID,919.133,VALID,0.0,VALID,97.652,VALID,28.243,VALID,18.992,VALID,84.0,VALID,1.363,
2017-07-05, 07:01:06,VALID,919.146,VALID,0.0,VALID,97.645,VALID,30.472,VALID,18.985,VALID,89.0,VALID,1.129,
2017-07-05, 07:02:06,VALID,919.17,VALID,0.0,VALID,97.649,VALID,32.687,VALID,18.982,VALID,100.0,VALID,1.129,
2017-07-05, 07:03:06,VALID,919.18,VALID,0.0,VALID,97.664,VALID,34.895,VALID,18.986,VALID,107.0,VALID,1.098,
2017-07-05, 07:04:06,VALID,919.207,VALID,0.0,VALID,97.711,VALID,37.357,VALID,18.997,VALID,108.0,VALID,1.079,
2017-07-05, 07:05:06,VALID,919.223,VALID,0.0,VALID,97.798,VALID,39.999,VALID,19.024,VALID,106.0,VALID,0.967,
2017-07-05, 07:06:06,VALID,919.248,VALID,0.0,VALID,97.879,VALID,42.853,VALID,19.049,VALID,104.0,VALID,0.95,
2017-07-05, 07:07:06,VALID,919.274,VALID,0.0,VALID,97.929,VALID,45.981,VALID,19.059,VALID,96.0,VALID,1.0,
2017-07-05, 07:08:06,VALID,919.297,VALID,0.0,VALID,97.92,VALID,49.374,VALID,19.059,VALID,95.0,VALID,1.066,
2017-07-05, 07:09:06,VALID,919.317,VALID,0.0,VALID,97.948,VALID,52.903,VALID,19.072,VALID,86.0,VALID,0.952,
2017-07-05, 07:10:06,VALID,919.351,VALID,0.0,VALID,97.904,VALID,56.423,VALID,19.054,VALID,86.0,VALID,1.039,
2017-07-05, 07:11:06,VALID,919.379,VALID,0.0,VALID,97.909,VALID,59.85,VALID,19.054,VALID,86.0,VALID,0.992,
2017-07-05, 07:12:06,VALID,919.399,VALID,0.0,VALID,97.932,VALID,63.12,VALID,19.063,VALID,87.0,VALID,0.973,
2017-07-05, 07:13:06,VALID,919.436,VALID,0.0,VALID,97.953,VALID,66.159,VALID,19.074,VALID,87.0,VALID,1.248,
2017-07-05, 07:14:06,VALID,919.465,VALID,0.0,VALID,97.83,VALID,69.2,VALID,19.066,VALID,92.0,VALID,1.082,
2017-07-05, 07:15:06,VALID,919.508,VALID,0.0,VALID,97.869,VALID,72.328,VALID,19.101,VALID,83.0,VALID,1.028,
2017-07-05, 07:16:06,VALID,919.549,VALID,0.0,VALID,97.911,VALID,75.326,VALID,19.147,VALID,88.0,VALID,0.625,
2017-07-05, 07:17:06,VALID,919.568,VALID,0.0,VALID,97.919,VALID,78.205,VALID,19.172,VALID,103.0,VALID,0.643,
2017-07-05, 07:18:06,VALID,919.593,VALID,0.0,VALID,97.958,VALID,80.856,VALID,19.21,VALID,101.0,VALID,0.562,
2017-07-05, 07:19:06,VALID,919.609,VALID,0.0,VALID,97.899,VALID,83.049,VALID,19.215,VALID,97.0,VALID,0.69,
2017-07-05, 07:20:06,VALID,919.624,VALID,0.0,VALID,97.861,VALID,85.027,VALID,19.231,VALID,94.0,VALID,0.556,
2017-07-05, 07:21:06,VALID,919.644,VALID,0.0,VALID,97.889,VALID,86.638,VALID,19.248,VALID,102.0,VALID,0.609,
2017-07-05, 07:22:06,VALID,919.659,VALID,0.0,VALID,97.781,VALID,87.167,VALID,19.244,VALID,105.0,VALID,0.479,
2017-07-05, 07:23:06,VALID,919.668,VALID,0.0,VALID,97.776,VALID,86.691,VALID,19.291,VALID,78.0,VALID,0.28,
2017-07-05, 07:24:06,VALID,919.676,VALID,0.0,VALID,97.942,VALID,85.773,VALID,19.373,VALID,58.0,VALID,0.209,
2017-07-05, 07:25:06,VALID,919.678,VALID,0.0,VALID,97.988,VALID,84.56,VALID,19.423,VALID,62.0,VALID,0.263,
2017-07-05, 07:26:06,VALID,919.679,VALID,0.0,VALID,97.939,VALID,83.318,VALID,19.447,VALID,48.0,VALID,0.36,
2017-07-05, 07:27:06,VALID,919.687,VALID,0.0,VALID,97.942,VALID,82.314,VALID,19.474,VALID,42.0,VALID,0.29,
2017-07-05, 07:28:06,VALID,919.691,VALID,0.0,VALID,97.789,VALID,81.58,VALID,19.477,VALID,33.0,VALID,0.067,
2017-07-05, 07:29:06,VALID,919.69,VALID,0.0,VALID,97.793,VALID,81.14,VALID,19.508,VALID,29.0,VALID,0.183,
2017-07-05, 07:30:06,VALID,919.686,VALID,0.0,VALID,97.631,VALID,80.901,VALID,19.516,VALID,8.0,VALID,0.363,
2017-07-05, 07:31:06,VALID,919.688,VALID,0.0,VALID,97.43,VALID,80.886,VALID,19.537,VALID,3.0,VALID,0.383,
2017-07-05, 07:32:06,VALID,919.699,VALID,0.0,VALID,97.455,VALID,81.436,VALID,19.604,VALID,342.0,VALID,0.314,
2017-07-05, 07:33:06,VALID,919.702,VALID,0.0,VALID,97.47,VALID,84.541,VALID,19.66,VALID,336.0,VALID,0.157,
2017-07-05, 07:34:06,VALID,919.729,VALID,0.0,VALID,97.409,VALID,92.466,VALID,19.689,VALID,334.0,VALID,0.102,
2017-07-05, 07:35:06,VALID,919.758,VALID,0.0,VALID,97.318,VALID,106.068,VALID,19.703,VALID,327.0,VALID,0.203,
2017-07-05, 07:36:06,VALID,919.785,VALID,0.0,VALID,97.516,VALID,117.878,VALID,19.764,VALID,306.0,VALID,0.038,
2017-07-05, 07:37:06,VALID,919.808,VALID,0.0,VALID,97.428,VALID,114.477,VALID,19.767,VALID,306.0,VALID,0.02,
2017-07-05, 07:38:06,VALID,919.836,VALID,0.0,VALID,97.28,VALID,109.64,VALID,19.769,VALID,306.0,VALID,0.0,
2017-07-05, 07:39:06,VALID,919.855,VALID,0.0,VALID,97.542,VALID,112.641,VALID,19.847,VALID,306.0,VALID,0.0,
2017-07-05, 07:40:06,VALID,919.87,VALID,0.0,VALID,97.734,VALID,120.191,VALID,19.936,VALID,306.0,VALID,0.0,
2017-07-05, 07:41:06,VALID,919.877,VALID,0.0,VALID,97.509,VALID,135.248,VALID,19.948,VALID,313.0,VALID,0.11,
2017-07-05, 07:42:06,VALID,919.88,VALID,0.0,VALID,97.279,VALID,172.818,VALID,19.971,VALID,323.0,VALID,0.018,
2017-07-05, 07:43:06,VALID,919.883,VALID,0.0,VALID,96.928,VALID,227.498,VALID,19.999,VALID,306.0,VALID,0.062,
2017-07-05, 07:44:06,VALID,919.875,VALID,0.0,VALID,96.735,VALID,291.631,VALID,20.011,VALID,282.0,VALID,0.171,
2017-07-05, 07:45:06,VALID,919.87,VALID,0.0,VALID,96.548,VALID,318.499,VALID,19.976,VALID,275.0,VALID,0.205,
2017-07-05, 07:46:06,VALID,919.872,VALID,0.0,VALID,96.671,VALID,336.517,VALID,19.985,VALID,270.0,VALID,0.062,
2017-07-05, 07:47:06,VALID,919.888,VALID,0.0,VALID,96.645,VALID,337.78,VALID,20.04,VALID,309.0,VALID,0.115,
2017-07-05, 07:48:06,VALID,919.885,VALID,0.0,VALID,97.063,VALID,317.077,VALID,20.192,VALID,3.0,VALID,0.099,
2017-07-05, 07:49:06,VALID,919.889,VALID,0.0,VALID,96.652,VALID,234.224,VALID,20.246,VALID,320.0,VALID,0.409,
2017-07-05, 07:50:06,VALID,919.884,VALID,0.0,VALID,95.567,VALID,220.473,VALID,20.289,VALID,12.0,VALID,0.72,
2017-07-05, 07:51:06,VALID,919.87,VALID,0.0,VALID,95.009,VALID,226.046,VALID,20.365,VALID,5.0,VALID,0.734,
2017-07-05, 07:52:06,VALID,919.872,VALID,0.0,VALID,94.481,VALID,265.527,VALID,20.427,VALID,30.0,VALID,0.394,
2017-07-05, 07:53:06,VALID,919.87,VALID,0.0,VALID,95.475,VALID,330.727,VALID,20.541,VALID,357.0,VALID,0.637,
2017-07-05, 07:54:06,VALID,919.878,VALID,0.0,VALID,94.002,VALID,318.437,VALID,20.574,VALID,12.0,VALID,0.387,
2017-07-05, 07:55:06,VALID,919.884,VALID,0.0,VALID,94.99,VALID,401.865,VALID,20.698,VALID,10.0,VALID,0.669,
2017-07-05, 07:56:06,VALID,919.869,VALID,0.0,VALID,94.685,VALID,386.458,VALID,20.783,VALID,18.0,VALID,1.009,
2017-07-05, 07:57:06,VALID,919.866,VALID,0.0,VALID,93.483,VALID,421.059,VALID,20.817,VALID,354.0,VALID,0.877,
2017-07-05, 07:58:06,VALID,919.86,VALID,0.0,VALID,93.871,VALID,488.039,VALID,20.899,VALID,358.0,VALID,1.061,
2017-07-05, 07:59:06,VALID,919.842,VALID,0.0,VALID,95.011,VALID,499.519,VALID,21.032,VALID,3.0,VALID,1.107,
2017-07-05, 08:00:06,VALID,919.819,VALID,0.0,VALID,94.081,VALID,505.258,VALID,21.149,VALID,12.0,VALID,1.204,
2017-07-05, 08:01:06,VALID,919.8,VALID,0.0,VALID,94.653,VALID,509.333,VALID,21.319,VALID,8.0,VALID,1.209,
2017-07-05, 08:02:06,VALID,919.787,VALID,0.0,VALID,92.095,VALID,508.048,VALID,21.436,VALID,342.0,VALID,1.129,
2017-07-05, 08:03:06,VALID,919.766,VALID,0.0,VALID,90.08,VALID,503.48,VALID,21.47,VALID,358.0,VALID,1.887,
2017-07-05, 08:04:06,VALID,919.777,VALID,0.0,VALID,91.269,VALID,500.706,VALID,21.462,VALID,8.0,VALID,0.887,
2017-07-05, 08:05:06,VALID,919.778,VALID,0.0,VALID,92.672,VALID,507.891,VALID,21.577,VALID,319.0,VALID,0.771,
2017-07-05, 08:06:06,VALID,919.809,VALID,0.0,VALID,90.708,VALID,510.999,VALID,21.549,VALID,318.0,VALID,0.648,
2017-07-05, 08:07:06,VALID,919.824,VALID,0.0,VALID,90.981,VALID,509.026,VALID,21.522,VALID,10.0,VALID,0.8,
2017-07-05, 08:08:06,VALID,919.824,VALID,0.0,VALID,92.074,VALID,506.11,VALID,21.653,VALID,15.0,VALID,0.668,
2017-07-05, 08:09:06,VALID,919.839,VALID,0.0,VALID,90.962,VALID,502.249,VALID,21.788,VALID,17.0,VALID,1.435,
2017-07-05, 08:10:06,VALID,919.863,VALID,0.0,VALID,90.128,VALID,500.845,VALID,21.915,VALID,8.0,VALID,1.416,
2017-07-05, 08:11:06,VALID,919.902,VALID,0.0,VALID,89.009,VALID,499.363,VALID,21.942,VALID,321.0,VALID,1.149,
2017-07-05, 08:12:06,VALID,919.943,VALID,0.0,VALID,89.071,VALID,498.518,VALID,21.744,VALID,345.0,VALID,1.471,
2017-07-05, 08:13:06,VALID,919.988,VALID,0.0,VALID,88.266,VALID,501.37,VALID,21.643,VALID,344.0,VALID,1.446,
2017-07-05, 08:14:06,VALID,920.011,VALID,0.0,VALID,89.632,VALID,502.566,VALID,21.642,VALID,9.0,VALID,0.964,
2017-07-05, 08:15:06,VALID,920.037,VALID,0.0,VALID,91.547,VALID,499.731,VALID,21.781,VALID,19.0,VALID,1.617,
2017-07-05, 08:16:06,VALID,920.08,VALID,0.0,VALID,90.693,VALID,502.06,VALID,21.949,VALID,288.0,VALID,1.167,
2017-07-05, 08:17:06,VALID,920.101,VALID,0.0,VALID,88.029,VALID,495.342,VALID,21.866,VALID,310.0,VALID,0.852,
2017-07-05, 08:18:06,VALID,920.102,VALID,0.0,VALID,89.4,VALID,493.123,VALID,21.873,VALID,339.0,VALID,0.537,
2017-07-05, 08:19:06,VALID,920.105,VALID,0.0,VALID,90.293,VALID,490.468,VALID,22.011,VALID,31.0,VALID,0.508,
2017-07-05, 08:20:06,VALID,920.101,VALID,0.0,VALID,89.714,VALID,445.103,VALID,22.152,VALID,300.0,VALID,0.15,
2017-07-05, 08:21:06,VALID,920.107,VALID,0.0,VALID,90.435,VALID,210.766,VALID,22.264,VALID,334.0,VALID,0.167,
2017-07-05, 08:22:06,VALID,920.112,VALID,0.0,VALID,89.397,VALID,302.986,VALID,22.351,VALID,307.0,VALID,0.021,
2017-07-05, 08:23:06,VALID,920.134,VALID,0.0,VALID,89.528,VALID,256.205,VALID,22.422,VALID,261.0,VALID,0.004,
2017-07-05, 08:24:06,VALID,920.156,VALID,0.0,VALID,88.957,VALID,161.143,VALID,22.472,VALID,325.0,VALID,0.177,
2017-07-05, 08:25:06,VALID,920.181,VALID,0.0,VALID,89.519,VALID,151.693,VALID,22.511,VALID,2.0,VALID,0.495,
2017-07-05, 08:26:06,VALID,920.217,VALID,0.0,VALID,88.55,VALID,154.332,VALID,22.437,VALID,340.0,VALID,0.493,
2017-07-05, 08:27:06,VALID,920.236,VALID,0.0,VALID,86.264,VALID,222.164,VALID,22.253,VALID,310.0,VALID,0.376,
2017-07-05, 08:28:06,VALID,920.245,VALID,0.0,VALID,86.292,VALID,491.671,VALID,22.099,VALID,287.0,VALID,0.355,
2017-07-05, 08:29:06,VALID,920.27,VALID,0.0,VALID,88.528,VALID,527.597,VALID,22.138,VALID,24.0,VALID,0.157,
2017-07-05, 08:30:06,VALID,920.293,VALID,0.0,VALID,89.331,VALID,399.766,VALID,22.331,VALID,315.0,VALID,0.201,
2017-07-05, 08:31:06,VALID,920.317,VALID,0.0,VALID,87.512,VALID,383.164,VALID,22.475,VALID,23.0,VALID,1.127,
2017-07-05, 08:32:06,VALID,920.37,VALID,0.0,VALID,86.907,VALID,308.815,VALID,22.496,VALID,21.0,VALID,0.78,
2017-07-05, 08:33:06,VALID,920.428,VALID,0.0,VALID,86.42,VALID,255.062,VALID,22.446,VALID,289.0,VALID,0.239,
2017-07-05, 08:34:06,VALID,920.487,VALID,0.0,VALID,86.938,VALID,228.744,VALID,22.351,VALID,285.0,VALID,0.025,
2017-07-05, 08:35:06,VALID,920.519,VALID,0.0,VALID,86.654,VALID,209.678,VALID,22.271,VALID,357.0,VALID,0.301,
2017-07-05, 08:36:06,VALID,920.553,VALID,0.0,VALID,87.668,VALID,206.521,VALID,22.25,VALID,338.0,VALID,0.0,
2017-07-05, 08:37:06,VALID,920.557,VALID,0.0,VALID,87.537,VALID,225.863,VALID,22.244,VALID,356.0,VALID,0.33,
2017-07-05, 08:38:06,VALID,920.566,VALID,0.0,VALID,87.804,VALID,240.488,VALID,22.219,VALID,270.0,VALID,0.029,
2017-07-05, 08:39:06,VALID,920.556,VALID,0.0,VALID,87.026,VALID,254.412,VALID,22.172,VALID,229.0,VALID,0.922,
2017-07-05, 08:40:06,VALID,920.534,VALID,0.0,VALID,86.218,VALID,263.68,VALID,21.945,VALID,251.0,VALID,1.263,
2017-07-05, 08:41:06,VALID,920.502,VALID,0.0,VALID,87.995,VALID,259.611,VALID,21.688,VALID,272.0,VALID,0.608,
2017-07-05, 08:42:06,VALID,920.485,VALID,0.0,VALID,89.151,VALID,245.392,VALID,21.577,VALID,256.0,VALID,0.889,
2017-07-05, 08:43:06,VALID,920.471,VALID,0.0,VALID,89.639,VALID,199.257,VALID,21.523,VALID,270.0,VALID,0.137,
2017-07-05, 08:44:06,VALID,920.457,VALID,0.0,VALID,91.04,VALID,187.442,VALID,21.566,VALID,280.0,VALID,0.003,
2017-07-05, 08:45:06,VALID,920.467,VALID,0.0,VALID,91.836,VALID,203.357,VALID,21.683,VALID,360.0,VALID,0.575,
2017-07-05, 08:46:06,VALID,920.497,VALID,0.0,VALID,90.866,VALID,249.619,VALID,21.785,VALID,330.0,VALID,0.401,
2017-07-05, 08:47:06,VALID,920.533,VALID,0.0,VALID,89.44,VALID,238.203,VALID,21.793,VALID,353.0,VALID,0.843,
2017-07-05, 08:48:06,VALID,920.574,VALID,0.0,VALID,88.47,VALID,264.943,VALID,21.786,VALID,346.0,VALID,0.876,
2017-07-05, 08:49:06,VALID,920.606,VALID,0.0,VALID,90.322,VALID,289.683,VALID,21.809,VALID,29.0,VALID,0.848,
2017-07-05, 08:50:06,VALID,920.63,VALID,0.0,VALID,89.523,VALID,299.998,VALID,21.836,VALID,3.0,VALID,1.27,
2017-07-05, 08:51:06,VALID,920.648,VALID,0.0,VALID,90.051,VALID,306.957,VALID,21.83,VALID,8.0,VALID,0.719,
2017-07-05, 08:52:06,VALID,920.68,VALID,0.0,VALID,90.186,VALID,279.545,VALID,21.91,VALID,322.0,VALID,0.458,
2017-07-05, 08:53:06,VALID,920.686,VALID,0.0,VALID,88.713,VALID,254.886,VALID,21.912,VALID,280.0,VALID,0.383,
2017-07-05, 08:54:06,VALID,920.665,VALID,0.0,VALID,89.356,VALID,234.371,VALID,21.897,VALID,292.0,VALID,0.341,
2017-07-05, 08:55:06,VALID,920.663,VALID,0.0,VALID,88.651,VALID,218.872,VALID,21.868,VALID,284.0,VALID,0.352,
2017-07-05, 08:56:06,VALID,920.661,VALID,0.0,VALID,89.44,VALID,210.063,VALID,21.908,VALID,343.0,VALID,0.653,
2017-07-05, 08:57:06,VALID,920.681,VALID,0.0,VALID,88.897,VALID,202.461,VALID,21.939,VALID,345.0,VALID,0.749,
2017-07-05, 08:58:06,VALID,920.7,VALID,0.0,VALID,89.089,VALID,197.003,VALID,21.928,VALID,315.0,VALID,0.164,
2017-07-05, 08:59:06,VALID,920.714,VALID,0.0,VALID,89.446,VALID,206.419,VALID,21.965,VALID,8.0,VALID,0.316,
2017-07-05, 09:00:06,VALID,920.736,VALID,0.0,VALID,88.83,VALID,205.401,VALID,21.978,VALID,360.0,VALID,0.536,
2017-07-05, 09:01:06,VALID,920.735,VALID,0.0,VALID,89.867,VALID,239.844,VALID,21.989,VALID,17.0,VALID,0.261,
2017-07-05, 09:02:06,VALID,920.761,VALID,0.0,VALID,90.11,VALID,228.02,VALID,22.06,VALID,36.0,VALID,0.267,
2017-07-05, 09:03:06,VALID,920.771,VALID,0.0,VALID,88.888,VALID,227.851,VALID,22.123,VALID,6.0,VALID,0.645,
2017-07-05, 09:04:06,VALID,920.776,VALID,0.0,VALID,89.084,VALID,291.096,VALID,22.133,VALID,10.0,VALID,0.724,
2017-07-05, 09:05:06,VALID,920.779,VALID,0.0,VALID,89.062,VALID,278.647,VALID,22.162,VALID,348.0,VALID,0.565,
2017-07-05, 09:06:06,VALID,920.775,VALID,0.0,VALID,88.335,VALID,264.269,VALID,22.159,VALID,34.0,VALID,0.682,
2017-07-05, 09:07:06,VALID,920.778,VALID,0.0,VALID,89.702,VALID,247.843,VALID,22.228,VALID,17.0,VALID,1.126,
2017-07-05, 09:08:06,VALID,920.784,VALID,0.0,VALID,88.589,VALID,214.823,VALID,22.253,VALID,17.0,VALID,1.036,
2017-07-05, 09:09:06,VALID,920.805,VALID,0.0,VALID,88.388,VALID,205.594,VALID,22.186,VALID,12.0,VALID,0.939,
2017-07-05, 09:10:06,VALID,920.834,VALID,0.0,VALID,88.103,VALID,224.247,VALID,22.105,VALID,349.0,VALID,0.514,
2017-07-05, 09:11:06,VALID,920.855,VALID,0.0,VALID,89.655,VALID,243.787,VALID,22.164,VALID,18.0,VALID,0.43,
2017-07-05, 09:12:06,VALID,920.855,VALID,0.0,VALID,90.12,VALID,264.858,VALID,22.255,VALID,342.0,VALID,0.264,
2017-07-05, 09:13:06,VALID,920.85,VALID,0.0,VALID,88.522,VALID,276.082,VALID,22.256,VALID,6.0,VALID,0.668,
2017-07-05, 09:14:06,VALID,920.842,VALID,0.0,VALID,88.484,VALID,283.377,VALID,22.205,VALID,19.0,VALID,0.256,
2017-07-05, 09:15:06,VALID,920.842,VALID,0.0,VALID,87.558,VALID,305.046,VALID,22.186,VALID,284.0,VALID,0.44,
2017-07-05, 09:16:06,VALID,920.827,VALID,0.0,VALID,87.249,VALID,300.995,VALID,22.124,VALID,270.0,VALID,0.188,
2017-07-05, 09:17:06,VALID,920.835,VALID,0.0,VALID,86.913,VALID,350.97,VALID,22.065,VALID,271.0,VALID,0.23,
2017-07-05, 09:18:06,VALID,920.849,VALID,0.0,VALID,89.63,VALID,363.272,VALID,22.126,VALID,25.0,VALID,0.673,
2017-07-05, 09:19:06,VALID,920.869,VALID,0.0,VALID,89.501,VALID,346.215,VALID,22.281,VALID,24.0,VALID,0.183,
2017-07-05, 09:20:06,VALID,920.872,VALID,0.0,VALID,88.364,VALID,336.891,VALID,22.431,VALID,50.0,VALID,0.38,
2017-07-05, 09:21:06,VALID,920.867,VALID,0.0,VALID,88.11,VALID,302.094,VALID,22.487,VALID,353.0,VALID,0.861,
2017-07-05, 09:22:06,VALID,920.845,VALID,0.0,VALID,86.944,VALID,330.032,VALID,22.453,VALID,354.0,VALID,1.097,
2017-07-05, 09:23:06,VALID,920.838,VALID,0.0,VALID,87.371,VALID,359.705,VALID,22.366,VALID,22.0,VALID,0.622,
2017-07-05, 09:24:06,VALID,920.837,VALID,0.0,VALID,87.597,VALID,421.087,VALID,22.408,VALID,317.0,VALID,0.413,
2017-07-05, 09:25:06,VALID,920.844,VALID,0.0,VALID,88.068,VALID,371.346,VALID,22.493,VALID,29.0,VALID,0.259,
2017-07-05, 09:26:06,VALID,920.857,VALID,0.0,VALID,87.794,VALID,418.897,VALID,22.622,VALID,342.0,VALID,0.126,
2017-07-05, 09:27:06,VALID,920.864,VALID,0.0,VALID,85.926,VALID,508.555,VALID,22.715,VALID,292.0,VALID,0.582,
2017-07-05, 09:28:06,VALID,920.887,VALID,0.0,VALID,86.121,VALID,379.624,VALID,22.748,VALID,8.0,VALID,1.252,
2017-07-05, 09:29:06,VALID,920.904,VALID,0.0,VALID,86.845,VALID,359.235,VALID,22.704,VALID,18.0,VALID,1.223,
2017-07-05, 09:30:06,VALID,920.92,VALID,0.0,VALID,86.711,VALID,347.795,VALID,22.725,VALID,316.0,VALID,0.643,
2017-07-05, 09:31:06,VALID,920.917,VALID,0.0,VALID,86.342,VALID,372.012,VALID,22.69,VALID,346.0,VALID,1.295,
2017-07-05, 09:32:06,VALID,920.914,VALID,0.0,VALID,86.462,VALID,383.722,VALID,22.604,VALID,6.0,VALID,1.22,
2017-07-05, 09:33:06,VALID,920.888,VALID,0.0,VALID,86.067,VALID,516.115,VALID,22.514,VALID,356.0,VALID,2.088,
2017-07-05, 09:34:06,VALID,920.888,VALID,0.0,VALID,87.243,VALID,436.583,VALID,22.428,VALID,13.0,VALID,1.186,
2017-07-05, 09:35:06,VALID,920.876,VALID,0.0,VALID,87.692,VALID,517.554,VALID,22.514,VALID,25.0,VALID,0.72,
2017-07-05, 09:36:06,VALID,920.883,VALID,0.0,VALID,87.544,VALID,570.44,VALID,22.679,VALID,297.0,VALID,0.49,
2017-07-05, 09:37:06,VALID,920.859,VALID,0.0,VALID,85.979,VALID,442.666,VALID,22.812,VALID,201.0,VALID,0.241,
2017-07-05, 09:38:06,VALID,920.838,VALID,0.0,VALID,85.577,VALID,320.939,VALID,22.872,VALID,319.0,VALID,0.468,
2017-07-05, 09:39:06,VALID,920.805,VALID,0.0,VALID,85.706,VALID,310.154,VALID,22.796,VALID,277.0,VALID,0.598,
2017-07-05, 09:40:06,VALID,920.763,VALID,0.0,VALID,87.372,VALID,417.419,VALID,22.774,VALID,4.0,VALID,1.437,
2017-07-05, 09:41:06,VALID,920.704,VALID,0.0,VALID,86.764,VALID,527.782,VALID,22.865,VALID,19.0,VALID,1.551,
